Location: ????????
(60.5616°N, 46.8254°E)
Time: 05:56:16
(UTC+00:00)

SJ 16-02 - Pass Details

Date: 18 February 2020
Orbit: 607 x 616 km, 75.0° (Epoch: 09 April)

Event Time Altitude Azimuth Distance (km) Brightness Sun altitude
Rises 15:05:18 0° 326° (NW) 2,902 5.2 -10.0°
Reaches altitude 10° 15:07:54 10° 339° (NNW) 1,992 4.2 -10.3°
Maximum altitude 15:11:38 26° 36° (NE) 1,240 2.6 -10.8°
Enters shadow 15:14:12 16° 82° (E) 1,636 2.9 -11.1°
